This demonstration page uses our WeatherBlox Daily Observations layout. Learn more.

Left ArrowRight Arrow

39.12711, -84.51439

Hourly Observations for October 23, 2016

Temp ( °F °C ) Dew Point ( °F °C ) Humidity (%) Winds ( mph kmh ) Pressure ( in mb ) Visibility ( mi km ) Precip ( " mm )
12:53 am 00:53 Mostly Cloudy 42 5.6 42 5.6 100 100 Calm 30.11 1020 10 16 0.00 0.00
1:53 am 01:53 Cloudy 45 7.2 44 6.7 97 97 Calm 30.12 1020 10 16 0.00 0.00
2:53 am 02:53 Cloudy 45 7.2 45 7.2 100 100 Calm 30.13 1020 10 16 0.00 0.00
3:53 am 03:53 Cloudy 45 7.2 45 7.2 100 100 Calm 30.13 1020 10 16 0.00 0.00
4:53 am 04:53 Cloudy 48 8.9 43 6.1 83 83 Calm 30.13 1020 10 16 0.00 0.00
5:53 am 05:53 Clear 47 8.3 42 5.6 83 83 Calm 30.14 1021 10 16 0.00 0.00
6:53 am 06:53 Clear 45 7.2 42 5.6 90 90 Calm 30.14 1021 10 16 0.00 0.00
7:53 am 07:53 Clear 42 5.6 42 5.6 100 100 S 3 6 30.15 1021 10 16 0.00 0.00
8:53 am 08:53 Sunny 45 7.2 43 6.1 93 93 S 6 9 30.16 1021 10 16 0.00 0.00
9:53 am 09:53 Sunny 52 11.1 45 7.2 77 77 S 6 9 30.16 1021 10 16 0.00 0.00
10:53 am 10:53 Sunny 58 14.4 45 7.2 62 62 SSW 10 17 30.14 1021 10 16 0.00 0.00
11:53 am 11:53 Sunny 62 16.7 48 8.9 60 60 SSW 12 19 30.12 1020 10 16 0.00 0.00
12:53 pm 12:53 Sunny 66 18.9 50 10 56 56 SSW 9 15 30.09 1019 10 16 0.00 0.00
1:53 pm 13:53 Sunny 69 20.6 50 10 51 51 SSW 15 24 30.06 1018 10 16 0.00 0.00
2:53 pm 14:53 Sunny 71 21.7 50 10 47 47 SSW 21 33 30.03 1017 10 16 0.00 0.00
3:53 pm 15:53 Sunny 72 22.2 51 10.6 48 48 WSW 17 28 30.01 1016 10 16 0.00 0.00
4:53 pm 16:53 Sunny 71 21.7 52 11.1 51 51 SSW 13 20 29.99 1016 10 16 0.00 0.00
5:53 pm 17:53 Sunny 70 21.1 50 10 49 49 SSW 18 30 29.98 1015 10 16 0.00 0.00
6:53 pm 18:53 Clear 67 19.4 49 9.4 53 53 SSW 14 22 29.98 1015 10 16 0.00 0.00
7:53 pm 19:53 Clear 65 18.3 50 10 59 59 SW 12 19 30.00 1016 10 16 0.00 0.00
8:53 pm 20:53 Clear 62 16.7 49 9.4 62 62 SSW 10 17 30.01 1016 10 16 0.00 0.00
9:53 pm 21:53 Clear 63 17.2 49 9.4 60 60 SW 12 19 30.02 1017 10 16 0.00 0.00
10:53 pm 22:53 Clear 62 16.7 49 9.4 62 62 SW 13 20 30.04 1017 10 16 0.00 0.00
11:53 pm 23:53 Clear 60 15.6 49 9.4 67 67 SW 9 15 30.05 1018 10 16 0.00 0.00

Powered by AerisWeather